When you browse on this site, cookies collect data to enhance your experience and personalize the content and advertising you see.
Visit our Privacy Policy to learn more. By continuing to use the site, you agree to this use of cookies and data.
  • In Hungary
  • List of Countries
  • For 7 days
  • Water Temperature
  • Weather Map
  • News
  • Weather Widgets
  • user-avatar
    Login

    Hourly Weather Belmopan

    Today, 6 June, Saturday

    Time Temperature Precipitation Wind Pressure Humidity
    00:00 +26°C° 0 mm 2 mps 749 mmHg 96%
    01:00 +25°C° 1.1 mm 2 mps 749 mmHg 97%
    02:00 +25°C° 1.1 mm 1 mps 749 mmHg 97%
    03:00 +25°C° 1.1 mm 1 mps 748 mmHg 98%
    04:00 +24°C° 0 mm 1 mps 749 mmHg 97%
    05:00 +24°C° 0 mm 1 mps 749 mmHg 97%
    06:00 +25°C° 0 mm 1 mps 749 mmHg 98%
    07:00 +27°C° 0 mm 1 mps 749 mmHg 89%
    08:00 +29°C° 0 mm 1 mps 750 mmHg 79%
    09:00 +31°C° 0 mm 1 mps 750 mmHg 70%
    10:00 +32°C° 0 mm 1 mps 750 mmHg 63%
    11:00 +34°C° 0 mm 1 mps 750 mmHg 56%
    12:00 +35°C° 0 mm 1 mps 750 mmHg 50%
    13:00 +34°C° 0.3 mm 1 mps 749 mmHg 59%
    14:00 +33°C° 0.3 mm 1 mps 749 mmHg 68%
    15:00 +31°C° 0.3 mm 1 mps 748 mmHg 78%
    16:00 +30°C° 0.6 mm 1 mps 748 mmHg 83%
    17:00 +29°C° 0.6 mm 1 mps 749 mmHg 88%
    18:00 +26°C° 0.6 mm 0 mps 749 mmHg 93%
    19:00 +26°C° 0.2 mm 0 mps 750 mmHg 94%
    20:00 +25°C° 0.2 mm 0 mps 750 mmHg 95%
    21:00 +25°C° 0.2 mm 0 mps 750 mmHg 96%
    22:00 +25°C° 0.5 mm 0 mps 750 mmHg 96%
    23:00 +25°C° 0.5 mm 0 mps 750 mmHg 97%

    Tomorrow, 7 June, Sunday

    Time Temperature Precipitation Wind Pressure Humidity
    00:00 +24°C° 0.5 mm 0 mps 750 mmHg 97%
    01:00 +24°C° 0 mm 0 mps 750 mmHg 97%
    02:00 +24°C° 0 mm 0 mps 749 mmHg 97%
    03:00 +24°C° 0 mm 0 mps 749 mmHg 97%
    04:00 +24°C° 0 mm 0 mps 749 mmHg 97%
    05:00 +24°C° 0 mm 0 mps 749 mmHg 96%
    06:00 +24°C° 0 mm 0 mps 749 mmHg 96%
    07:00 +26°C° 0 mm 0 mps 750 mmHg 85%
    08:00 +29°C° 0 mm 0 mps 750 mmHg 74%
    09:00 +31°C° 0 mm 0 mps 750 mmHg 62%
    10:00 +35°C° 0 mm 1 mps 750 mmHg 58%
    11:00 +36°C° 0 mm 1 mps 750 mmHg 53%
    12:00 +37°C° 0 mm 1 mps 749 mmHg 49%
    13:00 +36°C° 0 mm 1 mps 749 mmHg 52%
    14:00 +37°C° 0 mm 2 mps 748 mmHg 56%
    15:00 +36°C° 0 mm 2 mps 747 mmHg 59%
    16:00 +35°C° 0 mm 2 mps 747 mmHg 65%
    17:00 +32°C° 0 mm 2 mps 747 mmHg 71%
    18:00 +31°C° 0 mm 2 mps 748 mmHg 78%
    19:00 +29°C° 0 mm 1 mps 748 mmHg 83%
    20:00 +28°C° 0 mm 1 mps 749 mmHg 89%
    21:00 +27°C° 0 mm 1 mps 749 mmHg 95%
    22:00 +27°C° 0 mm 1 mps 749 mmHg 96%
    23:00 +27°C° 0 mm 1 mps 749 mmHg 97%

    Day after tomorrow, 8 June, Monday

    Time Temperature Precipitation Wind Pressure Humidity
    00:00 +25°C° 0 mm 0 mps 749 mmHg 98%
    01:00 +24°C° 0 mm 0 mps 749 mmHg 98%
    02:00 +24°C° 0 mm 0 mps 748 mmHg 98%
    03:00 +24°C° 0 mm 0 mps 748 mmHg 98%
    04:00 +25°C° 0 mm 0 mps 748 mmHg 97%
    05:00 +25°C° 0 mm 0 mps 748 mmHg 96%
    06:00 +25°C° 0 mm 0 mps 748 mmHg 95%
    07:00 +27°C° 0 mm 0 mps 749 mmHg 84%
    08:00 +30°C° 0 mm 0 mps 749 mmHg 73%
    09:00 +32°C° 0 mm 0 mps 749 mmHg 62%
    10:00 +36°C° 0 mm 1 mps 749 mmHg 56%
    11:00 +37°C° 0 mm 1 mps 749 mmHg 51%
    12:00 +40°C° 0 mm 1 mps 749 mmHg 45%
    13:00 +39°C° 0 mm 2 mps 748 mmHg 48%
    14:00 +39°C° 0 mm 2 mps 747 mmHg 51%
    15:00 +38°C° 0 mm 3 mps 747 mmHg 53%
    16:00 +36°C° 0 mm 2 mps 747 mmHg 62%
    17:00 +34°C° 0 mm 2 mps 747 mmHg 71%
    18:00 +31°C° 0 mm 2 mps 747 mmHg 80%
    19:00 +30°C° 0 mm 2 mps 748 mmHg 85%
    20:00 +29°C° 0 mm 1 mps 748 mmHg 90%
    21:00 +28°C° 0 mm 1 mps 749 mmHg 95%
    22:00 +28°C° 0 mm 1 mps 749 mmHg 96%
    23:00 +28°C° 0 mm 1 mps 749 mmHg 96%

    9 June, Tuesday

    Time Temperature Precipitation Wind Pressure Humidity
    00:00 +28°C° 0 mm 1 mps 749 mmHg 96%
    01:00 +28°C° 0 mm 1 mps 748 mmHg 97%
    02:00 +28°C° 0 mm 1 mps 748 mmHg 97%
    03:00 +26°C° 0 mm 0 mps 748 mmHg 98%
    04:00 +26°C° 0 mm 0 mps 748 mmHg 98%
    05:00 +26°C° 0 mm 0 mps 748 mmHg 97%
    06:00 +26°C° 0 mm 0 mps 748 mmHg 97%
    07:00 +28°C° 0 mm 0 mps 748 mmHg 89%
    08:00 +31°C° 0 mm 1 mps 749 mmHg 82%
    09:00 +33°C° 0 mm 1 mps 749 mmHg 74%
    10:00 +34°C° 0 mm 1 mps 749 mmHg 68%
    11:00 +36°C° 0 mm 1 mps 749 mmHg 63%
    12:00 +37°C° 0 mm 1 mps 748 mmHg 57%
    13:00 +37°C° 1.2 mm 2 mps 748 mmHg 65%
    14:00 +36°C° 1.2 mm 2 mps 747 mmHg 74%
    15:00 +35°C° 1.2 mm 2 mps 747 mmHg 82%
    16:00 +34°C° 1.2 mm 2 mps 747 mmHg 85%
    17:00 +32°C° 1.2 mm 2 mps 747 mmHg 88%
    18:00 +30°C° 1.2 mm 2 mps 747 mmHg 91%
    19:00 +30°C° 0.5 mm 2 mps 748 mmHg 93%
    20:00 +29°C° 0.5 mm 1 mps 749 mmHg 95%
    21:00 +28°C° 0.5 mm 1 mps 749 mmHg 97%
    22:00 +28°C° 0 mm 1 mps 749 mmHg 97%
    23:00 +28°C° 0 mm 1 mps 749 mmHg 97%

    10 June, Wednesday

    Time Temperature Precipitation Wind Pressure Humidity
    00:00 +28°C° 0 mm 1 mps 749 mmHg 97%
    01:00 +28°C° 0.1 mm 1 mps 749 mmHg 98%
    02:00 +27°C° 0.1 mm 1 mps 749 mmHg 98%
    03:00 +27°C° 0.1 mm 1 mps 748 mmHg 98%
    04:00 +27°C° 0 mm 1 mps 749 mmHg 98%
    05:00 +27°C° 0 mm 1 mps 749 mmHg 98%
    06:00 +25°C° 0 mm 0 mps 749 mmHg 98%
    07:00 +29°C° 0 mm 1 mps 750 mmHg 93%
    08:00 +30°C° 0 mm 1 mps 750 mmHg 87%
    09:00 +31°C° 0 mm 2 mps 751 mmHg 81%
    10:00 +32°C° 0.1 mm 2 mps 750 mmHg 78%
    11:00 +32°C° 0.1 mm 2 mps 750 mmHg 74%
    12:00 +34°C° 0.1 mm 2 mps 750 mmHg 70%
    13:00 +34°C° 0 mm 2 mps 750 mmHg 69%
    14:00 +34°C° 0 mm 3 mps 749 mmHg 68%
    15:00 +34°C° 0 mm 3 mps 749 mmHg 67%
    16:00 +33°C° 0.1 mm 3 mps 749 mmHg 73%
    17:00 +30°C° 0.1 mm 2 mps 749 mmHg 80%
    18:00 +29°C° 0.1 mm 2 mps 749 mmHg 87%
    19:00 +28°C° 0.1 mm 2 mps 750 mmHg 90%
    20:00 +28°C° 0.1 mm 1 mps 750 mmHg 94%
    21:00 +27°C° 0.1 mm 1 mps 751 mmHg 97%
    22:00 +27°C° 0.2 mm 1 mps 751 mmHg 98%
    23:00 +27°C° 0.2 mm 1 mps 751 mmHg 98%

    11 June, Thursday

    Time Temperature Precipitation Wind Pressure Humidity
    00:00 +26°C° 0.2 mm 1 mps 751 mmHg 99%
    01:00 +26°C° 0.1 mm 1 mps 751 mmHg 99%
    02:00 +26°C° 0.1 mm 1 mps 750 mmHg 99%
    03:00 +24°C° 0.1 mm 0 mps 750 mmHg 99%
    04:00 +24°C° 0.1 mm 0 mps 750 mmHg 99%
    05:00 +24°C° 0.1 mm 0 mps 751 mmHg 98%
    06:00 +24°C° 0.1 mm 0 mps 751 mmHg 98%
    07:00 +28°C° 0.1 mm 1 mps 751 mmHg 90%
    08:00 +29°C° 0.1 mm 1 mps 752 mmHg 82%
    09:00 +31°C° 0.1 mm 2 mps 752 mmHg 74%
    10:00 +32°C° 0.2 mm 2 mps 752 mmHg 69%
    11:00 +34°C° 0.2 mm 2 mps 752 mmHg 65%
    12:00 +34°C° 0.2 mm 3 mps 751 mmHg 60%
    13:00 +34°C° 0.1 mm 3 mps 751 mmHg 60%
    14:00 +34°C° 0.1 mm 3 mps 751 mmHg 60%
    15:00 +34°C° 0.1 mm 3 mps 750 mmHg 60%
    16:00 +31°C° 0 mm 2 mps 750 mmHg 66%
    17:00 +30°C° 0 mm 2 mps 751 mmHg 71%
    18:00 +29°C° 0 mm 1 mps 751 mmHg 77%
    19:00 +28°C° 0.1 mm 1 mps 751 mmHg 82%
    20:00 +27°C° 0.1 mm 1 mps 752 mmHg 88%
    21:00 +24°C° 0.1 mm 0 mps 752 mmHg 93%
    22:00 +23°C° 0.3 mm 0 mps 752 mmHg 94%
    23:00 +23°C° 0.3 mm 0 mps 752 mmHg 96%
    Show more